1484046000.41,18421,5.31,72394.5,-10.75,-35.65,-33.83,0,*63
1484046001.63,18422,5.31,72392.0,-10.77,-36.31,-34.77,0,*6C
1484046002.86,18423,5.25,72392.8,-10.77,-35.71,-33.89,0,*6C
1484046004.09,18424,5.31,72392.5,-10.77,-35.95,-34.25,0,*60
1484046005.33,18425,5.31,72392.3,-10.79,-35.71,-34.07,0,*65
1484046006.53,18426,5.31,72394.8,-10.77,-35.71,-34.07,0,*68
1484046007.74,18427,5.25,72392.0,-10.77,-36.07,-34.41,0,*69
1484046009.0,18428,5.31,72394.0,-10.81,-35.83,-34.19,0,*6D
1484046010.23,18429,5.31,72392.0,-10.79,-35.17,-33.55,0,*69
1484046011.47,18430,5.25,72388.5,-10.81,-35.65,-34.07,0,*63
1484046012.72,18431,5.25,72388.5,-10.79,-35.71,-34.31,0,*65
1484046013.98,18432,5.31,72390.5,-10.81,-36.13,-34.35,0,*62
1484046015.27,18433,5.25,72388.5,-10.83,-35.83,-34.31,0,*6F
1484046016.56,18434,5.25,72388.8,-10.83,-36.13,-34.65,0,*63
1484046017.8,18435,5.31,72394.8,-10.83,-36.01,-34.71,0,*64
1484046019.07,18436,5.31,72394.0,-10.87,-35.89,-34.53,0,*60
1484046020.34,18437,5.25,72390.0,-10.83,-35.95,-34.47,0,*6D
1484046021.6,18438,5.31,72390.0,-10.87,-35.83,-34.41,0,*67
1484046022.86,18439,5.31,72388.5,-10.87,-36.25,-34.89,0,*6D
1484046024.13,18440,5.31,72392.0,-10.87,-35.83,-34.59,0,*61
1484046025.39,18441,5.31,72390.0,-10.87,-36.19,-34.95,0,*60
1484046026.63,18442,5.31,72392.0,-10.89,-35.89,-34.53,0,*6D
1484046027.87,18443,5.25,72388.0,-10.89,-36.19,-35.07,0,*66
1484046029.14,18444,5.31,72392.3,-10.91,-36.25,-35.13,0,*62
1484046030.38,18445,5.31,72388.8,-10.89,-36.07,-35.07,0,*6F
1484046031.62,18446,5.31,72388.8,-10.91,-36.31,-35.17,0,*61
1484046032.86,18447,5.31,72388.5,-10.89,-36.19,-35.07,0,*62
1484046034.1,18448,5.31,72388.8,-10.91,-36.07,-35.13,0,*6E
1484046035.36,18449,5.31,72394.5,-10.91,-36.73,-35.89,0,*6F
1484046036.62,18450,5.31,72390.8,-10.95,-36.13,-35.17,0,*62
1484046037.88,18451,5.31,72390.5,-10.95,-35.95,-34.89,0,*68
1484046039.14,18452,5.31,72388.8,-10.93,-36.49,-35.35,0,*69
1484046040.43,18453,5.31,72390.5,-10.95,-36.49,-35.65,0,*6B
1484046041.67,18454,5.31,72388.8,-10.97,-36.19,-35.41,0,*6D
1484046042.89,18455,5.31,72388.3,-10.97,-36.19,-35.29,0,*62
1484046044.13,18456,5.31,72392.0,-10.99,-36.85,-36.19,0,*6A
1484046045.38,18457,5.31,72392.0,-10.99,-36.73,-35.89,0,*68
1484046046.67,18458,5.25,72390.8,-10.99,-36.37,-35.83,0,*6D
1484046047.94,18459,5.31,72392.0,-10.99,-36.01,-35.41,0,*67
1484046049.17,18460,5.31,72392.5,-11.01,-35.65,-34.89,0,*69
1484046050.43,18461,5.25,72386.8,-11.01,-35.83,-35.23,0,*61
1484046051.68,18462,5.31,72388.5,-11.03,-35.77,-35.29,0,*61
1484046052.95,18463,5.31,72392.0,-11.03,-36.07,-35.53,0,*69
1484046054.17,18464,5.31,72392.3,-11.01,-36.01,-35.29,0,*67
1484046055.41,18465,5.31,72392.0,-11.01,-35.83,-35.29,0,*6F
1484046056.65,18466,5.31,72388.8,-11.01,-36.85,-36.37,0,*65
1484046057.9,18467,5.31,72394.3,-11.03,-36.85,-36.31,0,*60
1484046059.15,18468,5.31,72390.0,-11.05,-36.31,-35.95,0,*6B
1484046060.44,18469,5.31,72388.3,-11.09,-36.13,-35.83,0,*61
1484046061.68,18470,5.31,72388.3,-11.05,-36.13,-35.89,0,*6F
1484046062.94,18471,5.31,72390.3,-11.09,-36.31,-36.13,0,*62
1484046064.21,18472,5.31,72390.3,-11.09,-36.19,-35.95,0,*66
1484046065.47,18473,5.31,72392.0,-11.11,-36.13,-35.83,0,*63
1484046066.73,18474,5.31,72390.8,-11.11,-35.65,-35.41,0,*68
1484046068.0,18475,5.31,72390.3,-11.11,-35.95,-35.83,0,*68
1484046069.26,18476,5.31,72388.8,-11.11,-35.83,-35.53,0,*61
1484046070.48,18477,5.31,72394.0,-11.11,-35.17,-35.01,0,*6A
1484046071.74,18478,5.31,72388.3,-11.13,-35.59,-35.41,0,*69
1484046073.0,18479,5.31,72390.3,-11.11,-35.65,-35.53,0,*66
1484046074.26,18480,5.31,72394.8,-11.13,-35.65,-35.47,0,*67
1484046075.5,18481,5.31,72394.5,-11.11,-35.07,-35.01,0,*62
1484046076.74,18482,5.31,72390.8,-11.11,-35.23,-35.17,0,*60
1484046078.0,18483,5.31,72390.8,-11.13,-35.47,-35.41,0,*62
1484046079.26,18484,5.31,72390.5,-11.13,-35.71,-35.65,0,*66
1484046080.52,18485,5.31,72392.8,-11.13,-35.71,-35.65,0,*67
1484046081.74,18486,5.31,72392.3,-11.15,-36.01,-36.07,0,*61
1484046082.96,18487,5.31,72388.8,-11.15,-36.01,-36.01,0,*66
1484046084.23,18488,5.31,72390.8,-11.17,-35.89,-35.95,0,*66
1484046085.49,18489,5.31,72392.3,-11.17,-35.65,-35.71,0,*6F
1484046086.74,18490,5.31,72390.5,-11.17,-35.77,-35.77,0,*62
1484046088.02,18491,5.31,72390.5,-11.17,-35.53,-35.65,0,*66
1484046089.28,18492,5.31,72392.8,-11.17,-35.47,-35.53,0,*65
1484046090.58,18493,5.31,72394.0,-11.17,-35.95,-36.25,0,*69
1484046091.82,18494,5.31,72390.0,-11.21,-35.71,-35.71,0,*63
1484046093.09,18495,5.31,72390.3,-11.21,-35.83,-35.77,0,*69
1484046094.33,18496,5.31,72388.0,-11.21,-35.77,-35.71,0,*67
1484046095.59,18497,5.31,72388.0,-11.21,-35.53,-35.59,0,*6A
1484046096.85,18498,5.31,72388.3,-11.23,-35.23,-35.35,0,*6A
1484046098.09,18499,5.31,72392.8,-11.23,-35.41,-35.59,0,*65
1484046099.36,18500,5.31,72388.5,-11.25,-35.77,-35.83,0,*60
1484046100.6,18501,5.31,72388.8,-11.25,-35.89,-36.07,0,*6F
1484046101.85,18502,5.31,72388.3,-11.23,-36.37,-36.55,0,*6B
1484046103.15,18503,5.31,72390.5,-11.25,-36.25,-36.25,0,*68
1484046104.37,18504,5.31,72392.0,-11.27,-35.59,-35.77,0,*61
1484046105.59,18505,5.31,72388.5,-11.27,-35.59,-35.77,0,*60
1484046106.83,18506,5.31,72388.3,-11.27,-35.41,-35.47,0,*69
1484046108.1,18507,5.31,72392.3,-11.27,-35.23,-35.23,0,*6E
1484046109.36,18508,5.31,72388.8,-11.27,-35.23,-35.23,0,*61
1484046110.63,18509,5.31,72388.5,-11.31,-35.65,-35.83,0,*6F
1484046111.92,18510,5.31,72392.5,-11.33,-35.83,-35.83,0,*6D
1484046113.19,18511,5.31,72390.8,-11.33,-35.47,-35.53,0,*69
1484046114.48,18512,5.31,72388.5,-11.33,-35.35,-35.53,0,*6F
1484046115.72,18513,5.31,72388.5,-11.33,-35.47,-35.71,0,*6B
1484046116.98,18514,5.31,72392.0,-11.33,-35.35,-35.29,0,*64
1484046118.24,18515,5.31,72392.3,-11.35,-35.53,-35.53,0,*6E
1484046119.47,18516,5.31,72388.5,-11.35,-35.77,-35.77,0,*6D
1484046120.7,18517,5.31,72390.8,-11.35,-35.77,-35.77,0,*6C
1484046121.93,18518,5.31,72390.5,-11.35,-35.59,-35.53,0,*69
1484046123.18,18519,5.31,72390.5,-11.37,-35.59,-35.77,0,*6C
1484046124.4,18520,5.31,72388.5,-11.39,-35.47,-35.47,0,*64
1484046125.62,18521,5.31,72388.3,-11.39,-35.59,-35.47,0,*6A
1484046126.84,18522,5.31,72388.8,-11.39,-36.19,-36.07,0,*69
1484046128.05,18523,5.31,72390.8,-11.41,-35.59,-35.47,0,*67
1484046129.28,18524,5.31,72390.5,-11.41,-35.77,-35.65,0,*6C
1484046130.53,18525,5.31,72386.3,-11.43,-36.01,-35.89,0,*6F
1484046131.79,18526,5.31,72390.5,-11.43,-35.71,-35.53,0,*6F
1484046133.07,18527,5.31,72388.5,-11.43,-35.65,-35.35,0,*6B
1484046134.33,18528,5.31,72388.5,-11.43,-35.53,-35.29,0,*6C
1484046135.59,18529,5.31,72388.8,-11.43,-35.71,-35.53,0,*60
1484046136.86,18530,5.31,72390.3,-11.47,-35.77,-35.53,0,*6A
1484046138.1,18531,5.31,72390.3,-11.45,-35.89,-35.53,0,*68
1484046139.32,18532,5.31,72390.3,-11.45,-36.07,-35.77,0,*68
1484046140.58,18533,5.31,72384.5,-11.47,-36.13,-35.59,0,*62
1484046141.84,18534,5.31,72388.3,-11.47,-35.59,-35.07,0,*63
1484046143.11,18535,5.31,72390.8,-11.47,-36.31,-35.95,0,*64
1484046144.35,18536,5.31,72388.5,-11.47,-36.07,-35.59,0,*62
1484046145.61,18537,5.31,72392.5,-11.51,-36.13,-35.59,0,*61
1484046146.87,18538,5.31,72392.0,-11.51,-36.13,-35.47,0,*61
1484046148.12,18539,5.31,72386.8,-11.51,-35.41,-34.89,0,*67
1484046149.36,18540,5.31,72390.5,-11.51,-35.29,-34.71,0,*60
1484046150.62,18541,5.31,72390.5,-11.51,-35.13,-34.65,0,*6D
1484046151.86,18542,5.31,72390.8,-11.51,-35.29,-34.71,0,*62
1484046153.14,18543,5.31,72394.0,-11.51,-35.65,-35.07,0,*6B
1484046154.4,18544,5.31,72392.8,-11.51,-35.47,-34.83,0,*61
1484046155.63,18545,5.31,72392.3,-11.55,-35.47,-34.71,0,*69
1484046156.89,18546,5.31,72394.3,-11.55,-35.59,-35.07,0,*65
1484046158.16,18547,5.31,72392.8,-11.55,-36.37,-35.47,0,*6B
1484046159.43,18548,5.31,72392.8,-11.55,-36.19,-35.41,0,*6E
1484046160.66,18549,5.31,72394.5,-11.57,-35.53,-34.77,0,*64
1484046161.86,18550,5.31,72392.5,-11.57,-34.89,-34.25,0,*6D
1484046163.1,18551,5.31,72388.0,-11.55,-35.01,-34.13,0,*6A
1484046164.36,18552,5.31,72390.0,-11.57,-35.35,-34.53,0,*68
1484046165.61,18553,5.31,72390.8,-11.55,-35.77,-35.01,0,*6B
1484046166.88,18554,5.31,72394.5,-11.55,-35.59,-34.65,0,*63
1484046168.13,18555,5.31,72392.0,-11.57,-35.35,-34.53,0,*6F
1484046169.39,18556,5.31,72394.3,-11.57,-35.65,-34.83,0,*64
1484046170.67,18557,5.31,72394.8,-11.55,-35.65,-34.83,0,*67
1484046171.9,18558,5.31,72388.3,-11.57,-35.65,-34.59,0,*6D
1484046173.16,18559,5.31,72388.0,-11.59,-35.71,-34.95,0,*67
1484046174.43,18560,5.31,72392.3,-11.59,-35.83,-34.89,0,*6D
1484046175.69,18561,5.31,72390.8,-11.59,-36.07,-35.07,0,*64
1484046176.94,18562,5.31,72392.8,-11.59,-35.53,-34.41,0,*66
1484046178.17,18563,5.31,72390.5,-11.61,-35.71,-34.83,0,*62
1484046179.39,18564,5.31,72394.0,-11.61,-36.07,-35.13,0,*6F
1484046180.65,18565,5.31,72388.3,-11.59,-35.65,-34.77,0,*61
1484046181.91,18566,5.31,72388.5,-11.59,-36.01,-35.07,0,*65
1484046183.14,18567,5.31,72388.3,-11.61,-35.71,-34.83,0,*66
1484046184.38,18568,5.31,72392.8,-11.61,-35.71,-34.83,0,*69
1484046185.61,18569,5.31,72392.5,-11.61,-35.59,-34.65,0,*6A
1484046186.87,18570,5.31,72392.5,-11.61,-35.53,-34.65,0,*68
1484046188.12,18571,5.31,72392.0,-11.61,-35.95,-35.01,0,*60
1484046189.36,18572,5.31,72390.8,-11.61,-35.95,-35.17,0,*64
1484046190.57,18573,5.31,72388.3,-11.65,-35.59,-34.89,0,*67
1484046191.79,18574,5.31,72386.8,-11.65,-35.77,-35.01,0,*6D
1484046193.0,18575,5.31,72390.8,-11.65,-35.59,-34.71,0,*66
1484046194.27,18576,5.31,72390.3,-11.65,-35.41,-34.65,0,*69
1484046195.52,18577,5.31,72392.8,-11.65,-35.65,-34.83,0,*66
1484046196.75,18578,5.31,72390.5,-11.65,-35.65,-34.89,0,*63
1484046197.99,18579,5.31,72388.8,-11.67,-35.59,-34.71,0,*68
1484046199.22,18580,5.31,72390.5,-11.65,-35.65,-34.89,0,*64
1484046200.45,18581,5.31,72386.5,-11.65,-35.41,-34.71,0,*64
1484046201.67,18582,5.31,72388.0,-11.65,-35.77,-35.17,0,*63
1484046202.91,18583,5.31,72388.8,-11.65,-36.13,-35.47,0,*66
1484046204.2,18584,5.31,72386.5,-11.67,-35.83,-35.23,0,*6B
1484046205.46,18585,5.31,72388.8,-11.65,-35.65,-35.07,0,*66
1484046206.7,18586,5.31,72390.3,-11.67,-35.59,-35.01,0,*6E
1484046207.94,18587,5.31,72388.3,-11.67,-35.17,-34.47,0,*66
1484046209.16,18588,5.31,72390.3,-11.65,-35.01,-34.47,0,*6C
1484046210.4,18589,5.31,72388.8,-11.65,-34.89,-34.31,0,*6D
1484046211.66,18590,5.31,72390.0,-11.67,-35.29,-34.83,0,*65
1484046212.94,18591,5.31,72388.0,-11.67,-35.65,-35.23,0,*67
1484046214.21,18592,5.31,72388.5,-11.67,-35.83,-35.29,0,*66
1484046215.46,18593,5.31,72390.0,-11.67,-35.77,-35.29,0,*6C
1484046216.75,18594,5.31,72386.0,-11.67,-35.83,-35.41,0,*6E
1484046218.02,18595,5.31,72386.5,-11.71,-35.89,-35.35,0,*61
1484046219.27,18596,5.31,72390.8,-11.69,-35.89,-35.35,0,*6B
1484046220.51,18597,5.31,72384.8,-11.69,-35.47,-35.07,0,*69
1484046221.74,18598,5.31,72388.0,-11.69,-35.53,-35.13,0,*66
1484046222.98,18599,5.31,72386.5,-11.69,-35.29,-35.07,0,*6F
1484046224.23,18600,5.31,72390.0,-11.69,-36.25,-35.71,0,*62
1484046225.5,18601,5.31,72388.8,-11.71,-35.65,-35.29,0,*60
1484046226.74,18602,5.31,72390.0,-11.69,-35.83,-35.47,0,*6A
1484046227.99,18603,5.31,72390.3,-11.71,-35.47,-35.29,0,*62
1484046229.24,18604,5.31,72386.0,-11.71,-35.29,-34.89,0,*66
1484046230.48,18605,5.31,72388.3,-11.69,-35.29,-35.07,0,*69
1484046231.75,18606,5.31,72388.5,-11.71,-35.13,-35.07,0,*6A
1484046233.03,18607,5.31,72388.8,-11.71,-35.07,-34.77,0,*68
1484046234.3,18608,5.31,72390.3,-11.71,-35.07,-34.71,0,*61
1484046235.55,18609,5.31,72386.5,-11.69,-35.07,-34.77,0,*6F
1484046236.79,18610,5.31,72390.3,-11.69,-35.07,-34.77,0,*67
1484046238.04,18611,5.31,72390.3,-11.69,-35.13,-34.95,0,*6F
1484046239.28,18612,5.31,72386.8,-11.69,-35.07,-34.77,0,*65
1484046240.53,18613,5.31,72386.3,-11.69,-34.95,-34.89,0,*6F
1484046241.77,18614,5.31,72384.5,-11.69,-35.47,-35.35,0,*60
1484046243.01,18615,5.31,72384.5,-11.69,-35.13,-34.95,0,*6B
1484046244.28,18616,5.31,72384.0,-11.69,-35.23,-34.95,0,*6B
1484046245.52,18617,5.31,72386.5,-11.71,-35.89,-35.71,0,*68
1484046246.79,18618,5.31,72386.5,-11.69,-35.83,-35.53,0,*64
1484046248.07,18619,5.31,72390.5,-11.69,-36.49,-36.25,0,*62
1484046249.31,18620,5.31,72386.5,-11.71,-36.43,-36.19,0,*64
1484046250.61,18621,5.31,72386.5,-11.71,-36.61,-36.25,0,*6A
1484046251.87,18622,5.31,72386.5,-11.71,-36.01,-35.89,0,*6A
1484046253.16,18623,5.31,72386.5,-11.71,-36.61,-36.37,0,*6B
1484046254.43,18624,5.31,72388.8,-11.73,-36.31,-36.13,0,*6D
1484046255.65,18625,5.31,72382.8,-11.75,-36.31,-35.89,0,*6A
1484046256.9,18626,5.31,72386.0,-11.79,-36.01,-35.83,0,*6C
1484046258.14,18627,5.31,72384.5,-11.79,-36.73,-36.37,0,*64
1484046259.39,18628,5.31,72390.8,-11.79,-36.73,-36.37,0,*6B
1484046260.65,18629,5.31,72384.5,-11.79,-36.61,-36.37,0,*69
1484046261.92,18630,5.31,72384.8,-11.81,-36.73,-36.37,0,*65
1484046263.19,18631,5.31,72384.5,-11.79,-36.79,-36.49,0,*60
1484046264.43,18632,5.31,72386.8,-11.81,-36.55,-36.31,0,*65
1484046265.68,18633,5.31,72386.0,-11.83,-37.03,-36.61,0,*61
1484046266.95,18634,5.31,72384.0,-11.85,-36.19,-35.83,0,*65
1484046268.19,18635,5.31,72384.5,-11.83,-36.61,-36.07,0,*62
1484046269.41,18636,5.31,72384.8,-11.83,-36.43,-36.07,0,*61
1484046270.65,18637,5.31,72386.0,-11.83,-37.03,-36.61,0,*65
1484046271.92,18638,5.31,72384.3,-11.85,-36.85,-36.37,0,*60
1484046273.17,18639,5.31,72384.0,-11.87,-36.67,-36.25,0,*6C
1484046274.42,18640,5.31,72386.5,-11.87,-36.91,-36.43,0,*6B
1484046275.65,18641,5.31,72386.0,-11.87,-36.73,-36.31,0,*63
1484046276.9,18642,5.31,72386.3,-11.87,-36.43,-35.95,0,*6E
1484046278.18,18643,5.31,72386.5,-11.89,-36.67,-36.25,0,*6F
1484046279.47,18644,5.31,72386.8,-11.89,-37.39,-36.91,0,*6D
1484046280.69,18645,5.31,72386.3,-11.87,-37.03,-36.43,0,*64
1484046281.96,18646,5.31,72380.3,-11.89,-36.07,-35.53,0,*6E
1484046283.2,18647,5.31,72384.5,-11.89,-36.31,-35.71,0,*6A
1484046284.44,18648,5.31,72384.3,-11.89,-36.67,-36.07,0,*64
1484046285.71,18649,5.31,72384.3,-11.89,-36.85,-36.13,0,*6C
1484046286.96,18650,5.31,72386.0,-11.89,-37.57,-36.67,0,*69
1484046288.23,18651,5.31,72384.3,-11.89,-38.05,-37.63,0,*65
1484046289.45,18652,5.31,72384.3,-11.95,-36.97,-36.31,0,*68
1484046290.7,18653,5.31,72382.3,-11.91,-36.73,-36.13,0,*67
1484046291.95,18654,5.31,72380.0,-11.91,-37.81,-37.27,0,*6A
1484046293.17,18655,5.31,72382.8,-11.95,-37.45,-36.67,0,*62
1484046294.43,18656,5.31,72384.5,-11.95,-36.79,-36.37,0,*6A
1484046295.65,18657,5.31,72380.3,-11.95,-37.45,-36.73,0,*65
1484046296.87,18658,5.31,72382.8,-11.95,-37.15,-36.67,0,*6A
1484046298.1,18659,5.31,72384.8,-11.99,-37.15,-36.55,0,*66
1484046299.4,18660,5.31,72384.5,-11.97,-37.21,-36.61,0,*62
1484046300.66,18661,5.31,72384.8,-11.97,-37.39,-36.85,0,*60
1484046301.87,18662,5.31,72380.3,-11.99,-37.33,-36.73,0,*6E
1484046303.09,18663,5.31,72384.5,-11.99,-37.33,-36.73,0,*6F
1484046304.36,18664,5.31,72380.5,-11.97,-37.57,-37.21,0,*62
1484046305.6,18665,5.31,72384.5,-11.99,-37.63,-37.27,0,*6C
1484046306.83,18666,5.31,72380.8,-11.99,-37.45,-36.91,0,*67
1484046308.08,18667,5.31,72380.3,-11.99,-37.45,-37.09,0,*66
1484046309.32,18668,5.31,72382.3,-11.99,-36.91,-36.43,0,*6E
1484046310.56,18669,5.31,72386.5,-11.99,-36.79,-36.31,0,*6C
1484046311.81,18670,5.31,72380.3,-11.99,-36.67,-36.25,0,*6E
1484046313.05,18671,5.31,72384.3,-11.99,-36.85,-36.25,0,*63
1484046314.32,18672,5.31,72382.8,-12.01,-37.27,-36.91,0,*64
1484046315.59,18673,5.31,72380.5,-12.01,-37.57,-37.09,0,*62
1484046316.88,18674,5.31,72380.0,-12.01,-37.21,-36.79,0,*62
1484046318.13,18675,5.31,72386.0,-12.01,-36.85,-36.43,0,*65
1484046319.4,18676,5.31,72382.0,-12.01,-37.09,-36.67,0,*65
1484046320.65,18677,5.31,72382.5,-11.99,-37.45,-37.21,0,*6D
1484046321.91,18678,5.31,72386.0,-12.01,-37.27,-36.91,0,*6E
1484046323.18,18679,5.31,72382.3,-12.01,-36.85,-36.61,0,*69
1484046324.45,18680,5.31,72380.5,-12.01,-37.57,-37.39,0,*6D
1484046325.72,18681,5.31,72380.3,-12.01,-37.93,-37.75,0,*6C
1484046326.96,18682,5.31,72382.3,-12.05,-37.63,-37.33,0,*66
1484046328.2,18683,5.31,72382.8,-12.05,-37.87,-37.69,0,*62
1484046329.47,18684,5.31,72378.0,-12.07,-38.29,-38.17,0,*6A
1484046330.73,18685,5.31,72382.0,-12.07,-37.51,-37.33,0,*62
1484046331.93,18686,5.31,72382.0,-12.09,-38.05,-38.05,0,*6B
1484046333.14,18687,5.31,72382.5,-12.09,-38.05,-38.05,0,*6A
1484046334.4,18688,5.31,72382.0,-12.11,-37.51,-37.33,0,*68
1484046335.69,18689,5.31,72382.8,-12.11,-37.69,-37.51,0,*66
1484046336.94,18690,5.31,72380.5,-12.11,-37.87,-37.75,0,*68
1484046338.23,18691,5.31,72378.8,-12.11,-38.29,-38.29,0,*64
1484046339.52,18692,5.31,72382.3,-12.11,-38.23,-38.11,0,*66
1484046340.76,18693,5.31,72380.3,-12.17,-37.63,-37.57,0,*67
1484046342.0,18694,5.31,72382.0,-12.13,-37.93,-37.87,0,*66
1484046343.24,18695,5.31,72382.3,-12.13,-37.69,-37.87,0,*62
1484046344.48,18696,5.31,72380.0,-12.17,-38.11,-38.17,0,*63
1484046345.73,18697,5.31,72382.3,-12.17,-38.11,-38.11,0,*64
1484046346.98,18698,5.31,72384.0,-12.17,-38.29,-38.35,0,*66
1484046348.24,18699,5.31,72380.0,-12.19,-38.23,-38.43,0,*62
1484046349.51,18700,5.31,72384.5,-12.19,-38.17,-38.23,0,*62
1484046350.78,18701,5.31,72382.0,-12.21,-37.69,-37.81,0,*69
1484046352.08,18702,5.31,72380.8,-12.19,-37.81,-37.99,0,*6E
1484046353.32,18703,5.31,72382.0,-12.21,-37.15,-37.09,0,*60
1484046354.53,18704,5.31,72380.8,-12.21,-37.03,-37.03,0,*6A
1484046355.77,18705,5.31,72382.8,-12.21,-37.45,-37.63,0,*6F
1484046357.02,18706,5.31,72382.3,-12.21,-37.81,-37.87,0,*6E
1484046358.26,18707,5.31,72384.5,-12.19,-37.27,-37.15,0,*63
1484046359.5,18708,5.31,72380.8,-12.21,-37.45,-37.63,0,*62
1484046360.75,18709,5.31,72384.0,-12.21,-37.45,-37.63,0,*63
1484046361.96,18710,5.31,72384.0,-12.21,-36.85,-37.03,0,*60
1484046363.23,18711,5.31,72380.5,-12.21,-37.51,-37.81,0,*63
1484046364.47,18712,5.31,72380.8,-12.21,-38.05,-38.23,0,*69
1484046365.71,18713,5.31,72382.0,-12.21,-37.45,-37.63,0,*68
1484046366.95,18714,5.31,72382.0,-12.21,-37.45,-37.51,0,*6E
1484046368.21,18715,5.31,72382.3,-12.23,-37.39,-37.57,0,*60
1484046369.45,18716,5.31,72380.3,-12.23,-36.97,-37.15,0,*60
1484046370.75,18717,5.31,72380.5,-12.23,-37.09,-37.39,0,*69
1484046372.03,18718,5.31,72380.0,-12.23,-37.93,-38.11,0,*60
1484046373.32,18719,5.31,72380.5,-12.23,-37.93,-38.23,0,*60
1484046374.58,18720,5.31,72382.0,-12.23,-37.69,-38.05,0,*6B
1484046375.87,18721,5.31,72378.3,-12.23,-37.69,-37.93,0,*6A
1484046377.15,18722,5.31,72382.5,-12.23,-38.11,-38.49,0,*61
1484046378.42,18723,5.31,72380.3,-12.29,-38.11,-38.49,0,*6A
1484046379.68,18724,5.31,72380.8,-12.27,-37.75,-38.11,0,*63
1484046380.95,18725,5.31,72376.8,-12.27,-37.57,-37.81,0,*64
1484046382.21,18726,5.31,72380.8,-12.27,-37.57,-37.93,0,*64
1484046383.45,18727,5.31,72382.0,-12.29,-37.21,-37.45,0,*61
1484046384.7,18728,5.31,72382.3,-12.29,-37.27,-37.63,0,*6C
1484046385.91,18729,5.31,72382.3,-12.29,-37.45,-37.75,0,*6E
1484046387.15,18730,5.31,72380.0,-12.29,-37.57,-37.93,0,*6D
1484046388.39,18731,5.31,72380.0,-12.29,-37.75,-38.11,0,*69
1484046389.64,18732,5.31,72380.5,-12.29,-37.27,-37.63,0,*67
1484046390.87,18733,5.31,72380.0,-12.29,-37.75,-38.11,0,*6B
1484046392.11,18734,5.31,72380.8,-12.29,-37.45,-37.93,0,*6A
1484046393.39,18735,5.31,72382.3,-12.31,-37.87,-38.23,0,*68
1484046394.66,18736,5.38,72384.3,-12.31,-37.69,-38.17,0,*6C
1484046395.9,18737,5.31,72376.8,-12.33,-37.81,-38.17,0,*69
1484046397.14,18738,5.31,72380.0,-12.33,-37.33,-37.81,0,*6F
1484046398.41,18739,5.31,72380.5,-12.31,-37.27,-37.81,0,*69
1484046399.66,18740,5.31,72378.5,-12.31,-37.87,-38.35,0,*6D
1484046400.88,18741,5.31,72380.8,-12.33,-37.87,-38.43,0,*6F
1484046402.15,18742,5.31,72382.5,-12.35,-37.63,-38.17,0,*61
1484046403.44,18743,5.31,72380.5,-12.35,-37.69,-38.23,0,*6D
1484046404.68,18744,5.31,72376.8,-12.33,-37.27,-37.81,0,*61
1484046405.92,18745,5.31,72380.5,-12.33,-37.63,-38.17,0,*60
1484046407.14,18746,5.31,72382.0,-12.39,-37.87,-38.43,0,*62
1484046408.44,18747,5.31,72382.3,-12.35,-37.09,-37.51,0,*65
1484046409.68,18748,5.31,72382.3,-12.39,-37.39,-38.05,0,*6B
1484046410.89,18749,5.31,72380.5,-12.39,-37.15,-37.75,0,*6C
1484046412.14,18750,5.31,72382.0,-12.35,-37.27,-37.87,0,*64
1484046413.37,18751,5.31,72382.0,-12.39,-37.39,-38.05,0,*63
1484046414.62,18752,5.31,72378.3,-12.35,-37.27,-37.87,0,*66
1484046415.85,18753,5.31,72382.8,-12.39,-36.79,-37.33,0,*6E
1484046417.12,18754,5.38,72386.3,-12.39,-37.51,-38.11,0,*6D
1484046418.35,18755,5.31,72380.5,-12.39,-36.79,-37.33,0,*68
1484046419.59,18756,5.31,72382.3,-12.39,-36.91,-37.57,0,*6F
1484046420.81,18757,5.31,72382.5,-12.39,-36.97,-37.75,0,*68
1484046422.08,18758,5.31,72380.5,-12.35,-36.67,-37.21,0,*65
1484046423.29,18759,5.31,72382.5,-12.39,-37.27,-38.05,0,*64
1484046424.56,18760,5.31,72380.3,-12.39,-37.51,-38.23,0,*6B
1484046425.8,18761,5.31,72382.3,-12.39,-37.33,-38.11,0,*6F
1484046427.04,18762,5.38,72384.3,-12.41,-36.97,-37.75,0,*61
1484046428.3,18763,5.31,72382.0,-12.41,-37.57,-38.49,0,*6D
1484046429.53,18764,5.31,72380.0,-12.41,-37.75,-38.35,0,*61
1484046430.83,18765,5.31,72380.5,-12.41,-37.21,-37.99,0,*68
1484046432.11,18766,5.31,72380.0,-12.41,-37.39,-38.11,0,*6D
1484046433.4,18767,5.31,72380.5,-12.41,-37.81,-38.67,0,*6E
1484046434.64,18768,5.38,72382.8,-12.41,-37.75,-38.55,0,*6B
1484046435.86,18769,5.31,72378.5,-12.43,-37.75,-38.55,0,*68
1484046437.07,18770,5.31,72380.8,-12.43,-37.75,-38.55,0,*60
1484046438.29,18771,5.31,72382.5,-12.43,-37.75,-38.55,0,*61
1484046439.58,18772,5.38,72380.3,-12.45,-37.99,-38.91,0,*6E
1484046440.85,18773,5.38,72382.3,-12.45,-37.81,-38.73,0,*6A
1484046442.09,18774,5.31,72380.8,-12.45,-37.87,-38.73,0,*6B
1484046443.33,18775,5.38,72384.8,-12.45,-37.45,-38.43,0,*67
1484046444.6,18776,5.31,72382.8,-12.45,-37.39,-38.35,0,*6E
1484046445.86,18777,5.31,72378.8,-12.45,-37.69,-38.73,0,*68
1484046447.16,18778,5.31,72380.0,-12.45,-37.81,-38.79,0,*6B
1484046448.43,18779,5.31,72382.0,-12.49,-37.45,-38.49,0,*6D
1484046449.7,18780,5.31,72382.0,-12.51,-37.09,-38.23,0,*66
1484046451.0,18781,5.31,72378.3,-12.49,-37.09,-38.23,0,*6E
1484046452.27,18782,5.38,72382.5,-12.49,-36.97,-37.93,0,*6F
1484046453.49,18783,5.38,72384.8,-12.51,-36.73,-37.75,0,*65
1484046454.75,18784,5.31,72380.3,-12.49,-37.09,-38.05,0,*6F
1484046456.0,18785,5.31,72380.0,-12.51,-37.33,-38.49,0,*66
1484046457.24,18786,5.31,72380.3,-12.51,-37.45,-38.49,0,*64
1484046458.48,18787,5.31,72382.3,-12.49,-37.27,-38.43,0,*62
1484046459.73,18788,5.31,72380.0,-12.51,-37.27,-38.49,0,*6E
1484046461.0,18789,5.38,72380.5,-12.51,-37.09,-38.23,0,*6F
1484046462.28,18790,5.31,72380.0,-12.51,-37.09,-38.23,0,*67
1484046463.55,18791,5.38,72382.5,-12.53,-36.61,-37.57,0,*67
1484046464.82,18792,5.38,72380.5,-12.53,-36.67,-37.63,0,*65
1484046466.07,18793,5.38,72380.8,-12.53,-36.19,-37.33,0,*68
1484046467.37,18794,5.31,72382.0,-12.53,-36.61,-37.63,0,*65
1484046468.59,18795,5.38,72382.8,-12.51,-36.55,-37.75,0,*66
1484046469.83,18796,5.38,72380.8,-12.51,-36.61,-37.57,0,*62
1484046471.1,18797,5.38,72382.8,-12.51,-36.37,-37.51,0,*66
1484046472.39,18798,5.38,72386.0,-12.53,-36.79,-37.93,0,*6F
1484046473.64,18799,5.38,72380.8,-12.53,-36.07,-37.33,0,*6D
1484046474.88,18800,5.31,72380.5,-12.55,-36.49,-37.57,0,*6C
1484046476.13,18801,5.31,72380.0,-12.53,-36.43,-37.57,0,*61
1484046477.4,18802,5.31,72376.3,-12.53,-36.37,-37.57,0,*61
1484046478.64,18803,5.38,72380.5,-12.53,-36.43,-37.57,0,*63
1484046479.89,18804,5.31,72382.5,-12.53,-36.01,-37.33,0,*60
1484046481.16,18805,5.38,72382.5,-12.53,-36.19,-37.39,0,*62
1484046482.43,18806,5.31,72382.5,-12.53,-36.19,-37.51,0,*6F
1484046483.67,18807,5.38,72382.5,-12.53,-36.01,-37.33,0,*63
1484046484.94,18808,5.31,72382.0,-12.53,-35.83,-37.15,0,*61
1484046486.16,18809,5.38,72380.8,-12.55,-36.07,-37.33,0,*6D
1484046487.38,18810,5.31,72380.3,-12.55,-36.01,-37.33,0,*63
1484046488.65,18811,5.31,72380.3,-12.53,-36.67,-37.93,0,*6E
1484046489.9,18812,5.38,72380.0,-12.53,-36.43,-37.57,0,*63
1484046491.14,18813,5.38,72382.5,-12.53,-36.19,-37.33,0,*6F
1484046492.38,18814,5.31,72378.0,-12.55,-36.43,-37.81,0,*68
1484046493.66,18815,5.38,72380.5,-12.53,-35.89,-37.21,0,*60
1484046494.9,18816,5.31,72378.3,-12.53,-35.71,-37.03,0,*64
1484046496.15,18817,5.38,72382.8,-12.55,-36.07,-37.51,0,*66
1484046497.4,18818,5.31,72376.3,-12.55,-36.07,-37.39,0,*67
1484046498.63,18819,5.38,72380.3,-12.55,-35.65,-36.97,0,*64
1484046499.91,18820,5.38,72380.8,-12.55,-36.37,-37.63,0,*60